Location: Highridge
(54.0333°N, 114.1333°W)
Time: 14:16:41
(UTC+00:00)

Oscar 19 - Pass Details

Date: 06 December 2023
Orbit: 771 x 789 km, 98.9° (Epoch: 01 March)

Event Time Altitude Azimuth Distance (km) Brightness Sun altitude
Rises 11:26:46 0° 23° (NNE) 3,275 14.3 -35.6°
Reaches altitude 10° 11:29:29 10° 36° (NE) 2,345 13.6 -35.2°
Maximum altitude 11:33:45 26° 92° (E) 1,517 12.6 -34.6°
Drops below altitude 10° 11:38:02 10° 148° (SSE) 2,340 13.3 -34.0°
Sets 11:40:43 0° 161° (SSE) 3,266 14.0 -33.6°
